EW8665 Weather Reports


time (UTC)temp
C
wind
direction
speed
KPH
gust
KPH
rain 1hr
cm
rain 24hr
cm
rain mn
cm
humidity
%
barometer
mb
20260510154008 16 242 8.0 20.9 0.00 0.00 0.00 77 1009.5
20260510153005 16 244 6.4 12.9 0.00 0.00 0.00 78 1009.6
20260510152505 16 246 8.0 14.5 0.00 0.00 0.00 78 1009.5
20260510152005 16 247 8.0 14.5 0.00 0.00 0.00 78 1009.6
20260510151504 16 249 8.0 16.1 0.00 0.00 0.00 77 1009.5
20260510151004 16 242 6.4 16.1 0.00 0.00 0.00 77 1009.5
20260510150504 16 246 6.4 14.5 0.00 0.00 0.00 77 1009.5
20260510150005 16 244 8.0 17.7 0.00 0.00 0.00 76 1009.6
20260510145508 16 246 11.3 20.9 0.00 0.00 0.00 76 1009.7
20260510145005 16 242 14.5 20.9 0.00 0.00 0.00 75 1009.7
20260510144505 17 240 14.5 24.1 0.00 0.00 0.00 73 1009.8
20260510144004 17 243 14.5 24.1 0.00 0.00 0.00 67 1009.4
20260510143504 17 237 11.3 24.1 0.00 0.00 0.00 67 1009.6
20260510143004 17 240 11.3 24.1 0.00 0.00 0.00 66 1009.6
20260510142505 17 236 14.5 32.2 0.00 0.00 0.00 66 1009.6
20260510142005 18 237 12.9 32.2 0.00 0.00 0.00 66 1009.4
20260510141504 18 237 11.3 20.9 0.00 0.00 0.00 65 1009.4
20260510141004 18 230 14.5 24.1 0.00 0.00 0.00 65 1009.3
20260510140504 18 230 12.9 24.1 0.00 0.00 0.00 63 1009.2
20260510140005 19 227 11.3 22.5 0.00 0.00 0.00 63 1009.4
20260510135505 19 234 9.7 19.3 0.00 0.00 0.00 63 1009.2
20260510135004 20 235 9.7 19.3 0.00 0.00 0.00 62 1009.1
20260510134505 20 237 11.3 16.1 0.00 0.00 0.00 63 1009.0
20260510133505 19 256 12.9 27.4 0.00 0.00 0.00 63 1008.9
20260510133004 20 253 11.3 27.4 0.00 0.00 0.00 63 1009.1
20260510131504 20 244 11.3 20.9 0.00 0.00 0.00 63 1009.2
20260510131006 20 251 11.3 19.3 0.00 0.00 0.00 62 1009.2
20260510130505 19 256 9.7 19.3 0.00 0.00 0.00 64 1009.2
20260510130004 19 261 9.7 19.3 0.00 0.00 0.00 65 1009.1
20260510125505 19 262 9.7 19.3 0.00 0.00 0.00 65 1009.0
20260510125005 19 269 9.7 16.1 0.00 0.00 0.00 65 1009.0
20260510123005 19 230 4.8 9.7 0.00 0.00 0.00 65 1009.3
20260510122505 19 222 4.8 9.7 0.00 0.00 0.00 65 1009.2
20260510121004 18 230 6.4 12.9 0.00 0.00 0.00 65 1009.6
20260510120504 18 231 8.0 12.9 0.00 0.00 0.00 65 1009.6
20260510120004 18 240 8.0 12.9 0.00 0.00 0.00 65 1009.8
20260510115005 18 248 8.0 20.9 0.00 0.00 0.00 65 1009.7
20260510114505 18 247 6.4 20.9 0.00 0.00 0.00 65 1009.8
20260510114004 18 253 6.4 12.9 0.00 0.00 0.00 67 1009.7
20260510113504 18 263 6.4 14.5 0.00 0.00 0.00 66 1009.8
20260510113004 18 257 6.4 14.5 0.00 0.00 0.00 66 1009.8
20260510112504 18 256 6.4 14.5 0.00 0.00 0.00 66 1009.8
20260510112005 18 264 6.4 12.9 0.00 0.00 0.00 65 1009.8
20260510111005 18 265 6.4 12.9 0.00 0.00 0.00 65 1009.7
20260510110504 18 260 6.4 12.9 0.00 0.00 0.00 65 1009.8
20260510110005 18 253 6.4 14.5 0.00 0.00 0.00 66 1010.0
20260510105505 18 251 8.0 14.5 0.00 0.00 0.00 66 1009.9
20260510105005 18 254 9.7 12.9 0.00 0.00 0.00 65 1009.9
20260510103505 18 259 6.4 12.9 0.00 0.00 0.00 65 1009.9
20260510103006 18 267 8.0 12.9 0.00 0.00 0.00 65 1010.1
20260510102504 18 268 8.0 12.9 0.00 0.00 0.00 65 1010.0
20260510102004 18 269 8.0 12.9 0.00 0.00 0.00 65 1010.2
20260510101504 18 269 9.7 17.7 0.00 0.00 0.00 65 1010.0
20260510100504 18 270 9.7 14.5 0.00 0.00 0.00 65 1010.3
20260510100004 18 270 9.7 17.7 0.00 0.00 0.00 66 1010.3
20260510095005 18 262 6.4 16.1 0.00 0.00 0.00 66 1010.5
20260510094506 18 257 6.4 19.3 0.00 0.00 0.00 65 1010.6
20260510094004 18 256 6.4 19.3 0.00 0.00 0.00 65 1010.6
20260510093504 18 250 8.0 17.7 0.00 0.00 0.00 65 1010.4
20260510093004 18 247 9.7 17.7 0.00 0.00 0.00 65 1010.6
20260510092504 18 241 9.7 14.5 0.00 0.00 0.00 65 1010.5
20260510091504 18 254 9.7 14.5 0.00 0.00 0.00 65 1010.6
20260510090504 18 252 9.7 16.1 0.00 0.00 0.00 65 1010.7
20260510090004 18 253 8.0 16.1 0.00 0.00 0.00 64 1010.5
20260510085504 18 257 8.0 16.1 0.00 0.00 0.00 64 1010.6
20260510085004 18 258 9.7 14.5 0.00 0.00 0.00 65 1010.5
20260510084505 18 255 9.7 14.5 0.00 0.00 0.00 65 1010.7
20260510084004 18 257 9.7 14.5 0.00 0.00 0.00 65 1010.7
20260510083504 18 259 9.7 14.5 0.00 0.00 0.00 65 1010.9
20260510083004 17 256 9.7 17.7 0.00 0.00 0.00 65 1010.7
20260510082004 17 262 9.7 16.1 0.00 0.00 0.00 66 1010.7
20260510081504 17 270 8.0 16.1 0.00 0.00 0.00 68 1010.9
20260510080504 16 283 8.0 12.9 0.00 0.00 0.00 73 1010.9
20260510080007 16 301 6.4 12.9 0.00 0.00 0.00 75 1010.9
20260510075504 16 286 4.8 12.9 0.00 0.00 0.00 75 1010.9
20260510075006 16 280 4.8 12.9 0.00 0.00 0.00 75 1010.9
20260510074504 15 273 3.2 12.9 0.00 0.00 0.00 75 1010.8
20260510073504 15 264 4.8 9.7 0.00 0.00 0.00 75 1010.7
20260510073005 15 255 6.4 9.7 0.00 0.00 0.00 75 1010.8
20260510072504 15 250 4.8 9.7 0.00 0.00 0.00 75 1010.5
20260510072004 15 250 4.8 9.7 0.00 0.00 0.00 75 1010.8
20260510071504 15 245 4.8 9.7 0.00 0.00 0.00 75 1010.5
20260510071004 15 239 6.4 11.3 0.00 0.00 0.00 75 1010.6
20260510070504 15 242 4.8 11.3 0.00 0.00 0.00 76 1010.6
20260510070004 15 236 4.8 8.0 0.00 0.00 0.00 77 1010.7
20260510065508 15 236 4.8 9.7 0.00 0.00 0.00 77 1010.5
20260510065004 15 234 6.4 11.3 0.00 0.00 0.00 77 1010.5
20260510064504 14 238 6.4 11.3 0.00 0.00 0.00 77 1010.8
20260510064004 14 242 4.8 11.3 0.00 0.00 0.00 77 1010.7
20260510063504 14 241 6.4 12.9 0.00 0.00 0.00 77 1010.8
20260510063004 14 245 8.0 12.9 0.00 0.00 0.00 77 1010.7
20260510062505 14 249 6.4 12.9 0.00 0.00 0.00 77 1010.6
20260510062004 14 252 4.8 11.3 0.00 0.00 0.00 78 1010.7
20260510061504 14 241 3.2 9.7 0.00 0.00 0.00 78 1010.5
20260510061004 13 74 1.6 6.4 0.00 0.00 0.00 79 1010.6
20260510055504 12 68 0.0 3.2 0.00 0.00 0.00 82 1010.6
20260510055004 12 67 1.6 3.2 0.00 0.00 0.00 83 1010.6
20260510054504 12 66 3.2 3.2 0.00 0.00 0.00 86 1010.7
20260510054007 12 69 3.2 6.4 0.00 0.00 0.00 87 1010.8
20260510053004 11 71 1.6 6.4 0.00 0.00 0.00 87 1010.8
20260510052504 11 79 1.6 3.2 0.00 0.00 0.00 88 1010.9
20260510052005 11 83 1.6 3.2 0.00 0.00 0.00 87 1010.8
20260510051504 11 88 1.6 3.2 0.00 0.00 0.00 87 1010.9
20260510051004 11 97 1.6 3.2 0.00 0.00 0.00 86 1010.9
20260510050504 11 104 1.6 3.2 0.00 0.00 0.00 86 1010.7
20260510050004 11 101 1.6 6.4 0.00 0.00 0.00 86 1010.8
20260510045504 11 93 4.8 8.0 0.00 0.00 0.00 87 1010.8
20260510045004 11 91 4.8 8.0 0.00 0.00 0.00 87 1010.7
20260510044504 11 84 4.8 6.4 0.00 0.00 0.00 87 1010.9
20260510044004 10 79 4.8 8.0 0.00 0.00 0.00 87 1010.8
20260510043504 10 78 4.8 8.0 0.00 0.00 0.00 87 1010.8
20260510043004 10 74 4.8 9.7 0.00 0.00 0.00 87 1010.8
20260510042004 10 63 4.8 8.0 0.00 0.00 0.00 87 1011.0
20260510041504 10 73 4.8 8.0 0.00 0.00 0.00 87 1011.0
20260510040504 10 63 3.2 8.0 0.00 0.00 0.00 88 1011.2
20260510040004 10 61 3.2 6.4 0.00 0.00 0.00 88 1011.1
20260510035504 10 66 3.2 6.4 0.00 0.00 0.00 88 1011.3
20260510035004 10 74 3.2 8.0 0.00 0.00 0.00 88 1011.3
20260510034504 10 73 3.2 8.0 0.00 0.00 0.00 87 1011.3
20260510034005 10 79 3.2 4.8 0.00 0.00 0.00 87 1011.3
20260510033004 10 86 1.6 3.2 0.00 0.00 0.00 86 1011.3
20260510032004 10 95 1.6 3.2 0.00 0.00 0.00 86 1011.4
20260510031504 10 87 1.6 3.2 0.00 0.00 0.00 86 1011.5
20260510031004 10 84 1.6 3.2 0.00 0.00 0.00 86 1011.4
20260510030004 11 82 0.0 3.2 0.00 0.00 0.00 86 1011.4
20260510025504 11 80 1.6 3.2 0.00 0.00 0.00 86 1011.4
20260510025004 11 79 3.2 4.8 0.00 0.00 0.00 86 1011.5
20260510024504 11 80 3.2 4.8 0.00 0.00 0.00 86 1011.4
20260510024005 11 79 3.2 4.8 0.00 0.00 0.00 85 1011.4
20260510023504 11 79 1.6 4.8 0.00 0.00 0.00 85 1011.5
20260510023004 11 81 1.6 3.2 0.00 0.00 0.00 86 1011.5
20260510022004 11 83 1.6 3.2 0.00 0.00 0.00 85 1011.6
20260510021504 11 86 3.2 3.2 0.00 0.00 0.00 85 1011.5
20260510021004 11 94 3.2 3.2 0.00 0.00 0.00 85 1011.5
20260510020504 11 96 1.6 3.2 0.00 0.00 0.00 85 1011.4
20260510020005 11 89 1.6 3.2 0.00 0.00 0.00 85 1011.3
20260510015504 11 84 0.0 3.2 0.00 0.00 0.00 85 1011.5
20260510015004 11 81 1.6 6.4 0.00 0.00 0.00 85 1011.7
20260510014504 11 74 3.2 6.4 0.00 0.00 0.00 85 1011.4
20260510014004 11 69 4.8 6.4 0.00 0.00 0.00 85 1011.5
20260510013504 11 67 4.8 9.7 0.00 0.00 0.00 85 1011.5
20260510013007 11 73 4.8 9.7 0.00 0.00 0.00 85 1011.5
20260510012504 11 74 4.8 8.0 0.00 0.00 0.00 85 1011.6
20260510012005 11 73 4.8 6.4 0.00 0.00 0.00 85 1011.7
20260510011504 11 79 3.2 4.8 0.00 0.00 0.00 85 1011.8
20260510011005 11 87 3.2 6.4 0.00 0.00 0.00 85 1011.8
20260510010504 11 86 3.2 6.4 0.00 0.00 0.00 85 1012.1
20260510005504 11 65 1.6 3.2 0.00 0.00 0.00 85 1012.1
20260510004004 11 68 0.0 3.2 0.00 0.00 0.00 84 1012.2
20260510003004 12 81 1.6 4.8 0.00 0.00 0.00 84 1012.0
20260510002504 12 82 3.2 4.8 0.00 0.00 0.00 83 1012.2
20260510002005 12 83 3.2 3.2 0.00 0.00 0.00 83 1012.2
20260510001504 12 85 3.2 4.8 0.00 0.00 0.00 83 1012.3
20260510001004 12 83 3.2 4.8 0.00 0.00 0.00 83 1012.3
20260510000504 12 77 3.2 3.2 0.00 0.00 0.00 80 1012.5
20260510000004 12 79 1.6 3.2 0.00 0.00 0.00 79 1012.5
20260509235505 12 80 1.6 3.2 0.00 0.00 0.00 79 1012.6
20260509235004 12 82 1.6 3.2 0.00 0.00 0.00 79 1012.7
20260509234004 13 88 3.2 4.8 0.00 0.00 0.00 79 1012.7
20260509233503 13 97 3.2 6.4 0.00 0.00 0.00 79 1012.8
20260509233004 13 94 3.2 6.4 0.00 0.00 0.00 78 1012.8
20260509232504 13 93 1.6 3.2 0.00 0.00 0.00 78 1012.7
20260509232004 13 92 1.6 3.2 0.00 0.00 0.00 78 1012.8
20260509231504 13 97 1.6 3.2 0.00 0.00 0.00 78 1012.7
20260509231004 13 99 1.6 4.8 0.00 0.00 0.00 77 1012.8
20260509230504 13 96 3.2 4.8 0.00 0.00 0.00 77 1012.8
20260509230004 13 100 1.6 4.8 0.00 0.00 0.00 76 1012.8
20260509225504 13 99 1.6 4.8 0.00 0.00 0.00 76 1012.8
20260509225004 13 96 1.6 4.8 0.00 0.00 0.00 76 1012.9
20260509224504 14 92 1.6 4.8 0.00 0.00 0.00 76 1013.0
20260509224005 14 87 1.6 6.4 0.00 0.00 0.00 76 1013.0
20260509223504 14 88 3.2 6.4 0.00 0.00 0.00 75 1013.1
20260509223004 14 86 3.2 6.4 0.00 0.00 0.00 75 1013.0
20260509222504 14 90 3.2 4.8 0.00 0.00 0.00 75 1013.2
20260509222004 14 79 3.2 4.8 0.00 0.00 0.00 75 1013.2
20260509221504 14 69 3.2 6.4 0.00 0.00 0.00 75 1013.1
20260509221004 14 63 3.2 6.4 0.00 0.00 0.00 75 1013.2
20260509215004 14 49 4.8 6.4 0.00 0.00 0.00 75 1013.3
20260509214504 14 47 4.8 11.3 0.00 0.00 0.00 75 1013.4
20260509214003 14 45 4.8 11.3 0.00 0.00 0.00 75 1013.4
20260509213504 14 40 6.4 11.3 0.00 0.00 0.00 75 1013.4
20260509213007 14 43 6.4 11.3 0.00 0.00 0.00 74 1013.3
20260509212004 14 43 6.4 9.7 0.00 0.00 0.00 75 1013.5
20260509211504 14 43 4.8 8.0 0.00 0.00 0.00 75 1013.4
20260509211004 14 41 4.8 8.0 0.00 0.00 0.00 75 1013.5
20260509210504 15 39 6.4 9.7 0.00 0.00 0.00 75 1013.5
20260509210004 15 34 6.4 11.3 0.00 0.00 0.00 74 1013.5
20260509205504 15 32 6.4 11.3 0.00 0.00 0.00 74 1013.4
20260509205004 15 30 6.4 11.3 0.00 0.00 0.00 74 1013.4
20260509204504 15 29 6.4 9.7 0.00 0.00 0.00 74 1013.5
20260509204004 15 25 6.4 9.7 0.00 0.00 0.00 74 1013.7
20260509203504 15 29 6.4 9.7 0.00 0.00 0.00 74 1013.7
20260509203004 15 33 6.4 8.0 0.00 0.00 0.00 73 1013.7
20260509202004 15 30 6.4 9.7 0.00 0.00 0.00 72 1013.7
20260509201504 15 33 4.8 9.7 0.00 0.00 0.00 72 1013.7
20260509201004 15 35 4.8 8.0 0.00 0.00 0.00 72 1013.6
20260509200504 15 28 6.4 8.0 0.00 0.00 0.00 71 1013.4
20260509195504 15 17 6.4 9.7 0.00 0.00 0.00 71 1013.6
20260509195005 16 16 6.4 9.7 0.00 0.00 0.00 70 1013.4
20260509194005 16 17 6.4 9.7 0.00 0.00 0.00 70 1013.4
20260509193004 16 30 6.4 9.7 0.00 0.00 0.00 69 1013.4
20260509192504 16 31 4.8 9.7 0.00 0.00 0.00 69 1013.6
20260509192004 16 41 6.4 11.3 0.00 0.00 0.00 68 1013.4
20260509191504 17 46 6.4 11.3 0.00 0.00 0.00 68 1013.5
20260509191004 17 44 4.8 11.3 0.00 0.00 0.00 67 1013.4
20260509190504 17 44 4.8 11.3 0.00 0.00 0.00 64 1013.6
20260509190004 17 48 6.4 12.9 0.00 0.00 0.00 63 1013.5
20260509185504 17 53 6.4 12.9 0.00 0.00 0.00 62 1013.6
20260509185004 18 50 6.4 12.9 0.00 0.00 0.00 60 1013.6
20260509184504 18 53 4.8 9.7 0.00 0.00 0.00 60 1013.6
20260509184005 18 53 4.8 9.7 0.00 0.00 0.00 59 1013.5
20260509183504 18 57 3.2 9.7 0.00 0.00 0.00 58 1013.6
20260509183004 19 47 3.2 4.8 0.00 0.00 0.00 58 1013.6
20260509182504 19 43 3.2 4.8 0.00 0.00 0.00 57 1013.5
20260509181504 20 47 3.2 6.4 0.00 0.00 0.00 55 1013.6
20260509181004 20 62 3.2 6.4 0.00 0.00 0.00 54 1013.4
20260509180507 20 64 3.2 8.0 0.00 0.00 0.00 51 1013.5
20260509180004 21 72 4.8 8.0 0.00 0.00 0.00 47 1013.5
20260509175006 21 78 4.8 12.9 0.00 0.00 0.00 45 1013.4
20260509174506 21 82 3.2 11.3 0.00 0.00 0.00 45 1013.4
20260509174005 21 75 6.4 12.9 0.00 0.00 0.00 45 1013.4
20260509173505 21 67 6.4 12.9 0.00 0.00 0.00 45 1013.6
20260509173005 21 71 6.4 11.3 0.00 0.00 0.00 45 1013.3
20260509172505 22 77 6.4 12.9 0.00 0.00 0.00 44 1013.2
20260509172005 22 82 6.4 12.9 0.00 0.00 0.00 44 1013.2
20260509171505 22 86 8.0 12.9 0.00 0.00 0.00 43 1013.3
20260509171005 22 99 8.0 12.9 0.00 0.00 0.00 43 1013.2
20260509170505 22 107 8.0 14.5 0.00 0.00 0.00 43 1013.2
20260509170005 22 111 8.0 16.1 0.00 0.00 0.00 39 1013.3
20260509165506 22 121 8.0 16.1 0.00 0.00 0.00 39 1013.3
20260509165006 22 122 8.0 16.1 0.00 0.00 0.00 40 1013.3
20260509164505 22 112 6.4 11.3 0.00 0.00 0.00 40 1013.2
20260509163505 22 101 6.4 12.9 0.00 0.00 0.00 40 1013.3
20260509163005 23 93 6.4 12.9 0.00 0.00 0.00 39 1013.4
20260509162505 23 94 6.4 9.7 0.00 0.00 0.00 39 1013.4
20260509161505 23 110 6.4 11.3 0.00 0.00 0.00 38 1013.3
20260509161006 24 121 6.4 14.5 0.00 0.00 0.00 38 1013.4
20260509160505 24 132 6.4 14.5 0.00 0.00 0.00 38 1013.4
20260509160006 24 140 6.4 12.9 0.00 0.00 0.00 38 1013.3
20260509155005 24 130 6.4 9.7 0.00 0.00 0.00 39 1013.3
20260509154505 24 134 8.0 17.7 0.00 0.00 0.00 39 1013.5